This demonstration page uses our WeatherBlox Daily Observations layout. Learn more.

Left ArrowRight Arrow

30.21309, -93.2044

Hourly Observations for July 28, 2022

Temp ( °F °C ) Dew Point ( °F °C ) Humidity (%) Winds ( mph kmh ) Pressure ( in mb ) Visibility ( mi km ) Precip ( " mm )
12:15 am 00:15 Clear 77 25.1 75 24 94 94 E 3 6 30.02 1017 10 16 0.00 0.00
12:35 am 00:35 Clear 77 25.2 75 24.1 94 94 Calm 30.01 1016 10 16 0.00 0.00
12:55 am 00:55 Clear 77 24.8 75 23.9 95 95 Calm 30.01 1016 7 11 0.00 0.00
1:15 am 01:15 Clear with Mist and Fog 77 24.8 75 24 95 95 Calm 30.01 1016 5 8 0.00 0.00
1:35 am 01:35 Partly Cloudy 77 24.8 75 24 95 95 E 5 7 30.01 1016 10 16 0.00 0.00
1:55 am 01:55 Partly Cloudy 76 24.4 74 23.5 95 95 E 3 6 30.01 1016 10 16 0.00 0.00
2:15 am 02:15 Clear 76 24.4 74 23.5 95 95 Calm 30.00 1016 10 16 0.00 0.00
2:35 am 02:35 Clear 76 24.5 74 23.6 95 95 E 5 7 30.00 1016 10 16 0.00 0.00
2:55 am 02:55 Partly Cloudy 76 24.5 74 23.5 94 94 ENE 5 7 30.00 1016 10 16 0.00 0.00
3:15 am 03:15 Partly Cloudy 76 24.5 74 23.5 94 94 E 5 7 30.01 1016 10 16 0.00 0.00
3:35 am 03:35 Clear 76 24.2 74 23.2 94 94 ESE 5 7 30.00 1016 10 16 0.00 0.00
3:55 am 03:55 Clear 75 23.9 73 23 95 95 SE 5 7 29.99 1016 10 16 0.00 0.00
4:15 am 04:15 Clear 75 23.8 73 22.9 95 95 SSE 3 6 29.99 1016 7 11 0.00 0.00
4:35 am 04:35 Clear 75 24 74 23.2 95 95 S 5 7 29.99 1016 10 16 0.00 0.00
4:55 am 04:55 Partly Cloudy 76 24.4 74 23.5 95 95 Calm 30.00 1016 10 16 0.00 0.00
5:15 am 05:15 Clear 76 24.6 75 23.7 95 95 SSE 6 9 29.99 1016 10 16 0.00 0.00
5:35 am 05:35 Clear 76 24.5 74 23.6 95 95 SSE 3 6 29.99 1016 10 16 0.00 0.00
6:00 am 06:00 Mostly Clear 75 24 73 23 94 94 Calm 30.00 1016 10 16 0.00 0.00
6:48 am 06:48 Partly Cloudy 75 24 73 23 94 94 Calm 30.01 1016 10 16 0.00 0.00
8:50 am 08:50 Partly Cloudy 82 28 75 24 79 79 Calm 30.04 1017 10 16 0.00 0.00
9:53 am 09:53 Mostly Cloudy 88 31 75 24 66 66 SW 8 13 30.05 1018 10 16 0.00 0.00
10:55 am 10:55 Mostly Cloudy with Thunderstorms 88 31 75 24 66 66 SE 12 19 30.05 1018 7 11 0.00 0.00
11:45 am 11:45 Mostly Cloudy with Thunderstorms 84 29 75 24 74 74 SE 5 7 30.06 1018 7 11 0.00 0.00
12:47 pm 12:47 Mostly Cloudy with Thunderstorms 88 31 75 24 66 66 NNE 8 13 30.05 1018 10 16 0.00 0.00
1:47 pm 13:47 Mostly Cloudy with Thunderstorms 81 27 73 23 79 79 SSE 14 22 30.07 1018 7 11 0.00 0.00
2:51 pm 14:51 Partly Cloudy 81 27 75 24 84 84 Calm 30.04 1017 10 16 0.00 0.00
3:47 pm 15:47 Partly Cloudy 84 29 73 23 70 70 Calm 30.03 1017 10 16 0.00 0.00
4:53 pm 16:53 Mostly Sunny 82 28 75 24 79 79 SE 6 9 30.01 1016 10 16 0.00 0.00
5:50 pm 17:50 Mostly Sunny 86 30 75 24 70 70 undefined N/A 30.01 1016 10 16 0.00 0.00
6:45 pm 18:45 Mostly Sunny 84 29 75 24 74 74 SSE 7 11 30.00 1016 10 16 0.00 0.00
7:52 pm 19:52 Mostly Sunny 82 28 75 24 79 79 S 6 9 30.00 1016 10 16 0.00 0.00
8:55 pm 20:55 Mostly Clear 81 27 75 24 84 84 SE 6 9 30.00 1016 10 16 0.00 0.00
9:45 pm 21:45 Mostly Clear 79 26 75 24 89 89 SSE 6 9 30.01 1016 10 16 0.00 0.00
10:15 pm 22:15 Clear 78 25.5 75 23.9 91 91 SSE 5 7 30.01 1016 10 16 0.00 0.00
10:35 pm 22:35 Clear 78 25.5 75 23.9 91 91 SSE 5 7 30.01 1016 10 16 0.00 0.00
10:55 pm 22:55 Clear 78 25.4 75 23.8 91 91 SSE 3 6 30.01 1016 10 16 0.00 0.00
11:15 pm 23:15 Clear 78 25.4 75 23.8 91 91 S 5 7 30.01 1016 10 16 0.00 0.00
11:35 pm 23:35 Clear 77 25.1 75 23.7 92 92 SSE 6 9 30.01 1016 10 16 0.00 0.00
11:55 pm 23:55 Clear 77 25 75 23.8 93 93 SSE 5 7 30.01 1016 10 16 0.00 0.00

Powered by AerisWeather